Location: Sternwarte Stuttgart
(48.7670°N, 9.1830°E)
Time: 02:01:40
(UTC+01:00)

Daily predictions for brighter satellites

Satellite Brightness Start Highest point End
(mag) Time Altitude Azimuth Time Altitude Azimuth Time Altitude Azimuth
IDEFIX/ARIANE 42P 4.4 04:16:14 10° NNE 04:18:49 26° NE 04:18:49 26° NE
Okean O Rocket 4.0 04:25:45 10° NE 04:29:09 21° E 04:29:50 20° ESE
Cosmos 2369 Rocket 3.1 04:44:46 41° NNE 04:44:46 41° NNE 04:48:24 10° NNE
CZ-2C R/B 3.9 04:38:58 10° NNE 04:43:22 34° E 04:46:05 20° SSE
Lacrosse 5 3.3 04:59:22 30° NNE 04:59:22 30° NNE 05:03:04 10° ENE
Lacrosse 4 Rocket 3.7 05:02:05 19° SE 05:02:05 19° SE 05:03:22 10° SSE
Aureole 1 Rocket 4.4 04:57:42 34° SSE 05:00:09 58° ESE 05:07:13 10° NNE
ATLAS 5 CENTAUR R/B 3.0 05:02:56 70° NNW 05:02:56 70° NNW 05:15:51 10° NE
Lacrosse 5 rocket 2.6 05:06:52 42° E 05:06:52 42° E 05:10:11 10° ENE
Cosmos 1269 Rocket 4.5 05:07:20 53° NNE 05:07:20 53° NNE 05:11:23 10° NNE
Tiangong 2 4.2 05:12:25 13° SE 05:12:25 13° SE 05:12:54 10° ESE
COSMO-SKYMED 1 3.3 05:07:33 10° SSE 05:11:11 51° ESE 05:11:11 51° ESE
Cosmos 2263 4.2 05:13:06 68° N 05:13:06 68° N 05:18:05 10° NNE
Cosmos 1238 Rocket 4.4 05:11:40 30° NE 05:12:31 34° ENE 05:16:30 10° SE
Cosmos 1943 Rocket 2.6 05:19:19 46° N 05:19:19 46° N 05:23:33 10° NNE
Meteor 2-20 4.3 05:14:24 10° S 05:20:29 85° E 05:26:36 10° N
Cosmos 1302 Rocket 3.8 05:22:03 86° NW 05:22:10 88° WSW 05:27:22 10° SSE
Cosmos 1634 Rocket 4.2 05:20:52 10° N 05:27:13 70° ENE 05:33:29 10° SSE
Cosmos 921 Rocket 3.1 05:28:21 68° ESE 05:28:21 68° ESE 05:32:13 10° SSE
Cosmos 2297 Rocket 3.9 05:24:45 12° N 05:29:11 28° NE 05:34:02 10° ESE
PAYLOAD A 4.1 05:24:59 10° N 05:28:42 53° N 05:28:42 53° N
CZ-4C R/B 3.6 05:31:04 26° NNW 05:31:21 26° NNW 05:36:51 10° NE
SKYMED 3 4.5 05:37:25 10° S 05:41:30 71° SW 05:41:30 71° SW
Cosmos 405 Rocket 4.4 05:39:00 10° SSE 05:42:28 34° E 05:45:54 10° NNE
Exosat Rocket 3.9 05:41:43 22° NNW 05:45:11 73° ENE 05:51:44 10° SSE
MSX 3.7 05:40:20 10° N 05:46:01 64° WNW 05:51:40 10° SSW
CZ-4B R/B 3.0 05:40:43 10° NNE 05:46:09 90° WSW 05:51:28 10° SSW
Cosmos 2219 3.6 05:41:57 18° NNW 05:46:12 60° ENE 05:51:48 10° SE
RESURS DK-1 2.2 05:50:10 72° WSW 05:50:14 72° WSW 05:54:20 10° SSE
Genesis I 3.1 05:50:32 76° W 05:50:42 77° NW 05:54:50 10° NE
Cosmos 494 Rocket 4.2 05:54:15 46° WNW 05:54:40 47° WNW 05:59:43 10° NNE
Cosmos 1441 Rocket 3.1 05:52:01 10° SSW 05:55:59 83° W 05:59:57 10° N
PAYLOAD B 4.2 05:51:31 10° N 05:57:03 62° WNW 06:02:31 10° SSW
Geosat 4.1 05:52:20 10° SE 05:57:20 75° ENE 06:01:04 18° NNW
USA 116 4.4 05:54:32 10° S 05:59:23 55° W 06:03:46 15° NNW
SKYMED 2 3.7 05:55:40 10° S 05:59:46 48° WSW 05:59:46 48° WSW
IDEFIX/ARIANE 42P 3.5 05:56:05 10° N 05:59:39 29° NW 05:59:39 29° NW
CZ-4B DEB 4.2 05:55:38 10° N 06:01:01 54° WNW 06:06:19 10° SW
Cosmos 1656 Rocket 3.6 05:58:50 23° SW 06:02:23 63° WNW 06:08:02 10° NNE
Cosmos 1484 Rocket 2.9 05:58:53 10° NNE 06:02:54 79° ESE 06:06:51 10° S
Cosmos 1726 2.5 06:00:07 10° S 06:03:46 63° E 06:07:29 10° NNE
Okean O Rocket 1.8 06:01:28 10° N 06:05:45 48° WNW 06:07:18 33° WSW
Cosmos-2242 4.5 06:02:18 10° SSE 06:06:17 39° E 06:10:20 10° NNE
ASTEX 1 4.2 06:01:36 10° NNE 06:06:28 53° E 06:11:15 10° S
Cosmos 389 Rocket 4.3 06:03:17 10° N 06:06:32 31° ENE 06:09:43 10° SE
Cosmos 1992 Rocket 4.0 06:03:25 14° NNW 06:07:58 86° ENE 06:13:13 10° SSE
Okean-O 3.9 06:04:47 10° NNE 06:09:02 42° E 06:13:14 10° S
Cosmos 1812 Rocket 3.5 06:06:41 10° SSW 06:10:59 58° WNW 06:15:17 10° N
DMSP B5D1-3 4.4 06:08:20 10° S 06:13:26 72° WSW 06:18:33 10° NNW
Cosmos 2227 Rocket 2.8 06:12:57 10° NNW 06:18:35 56° ENE 06:24:09 10° SE
CZ-2C R/B 3.7 06:16:30 10° S 06:21:14 76° WSW 06:25:57 10° NNW
CZ-2C R/B 2.9 06:17:16 10° N 06:21:35 35° WNW 06:25:30 13° SW
Meteor 1-16 Rocket 4.4 06:17:35 10° SSW 06:23:09 48° WNW 06:28:33 10° N
Cosmos 2369 Rocket 3.4 06:26:35 21° NW 06:27:29 22° NW 06:31:52 10° N
CZ-4 R/B 4.4 06:26:32 10° NE 06:29:21 19° E 06:32:11 10° SE
Cosmos 1076 Rocket 3.7 06:25:58 12° NNW 06:29:46 45° W 06:33:50 10° SSW
SJ-7 4.5 06:28:49 10° NNE 06:32:51 79° ESE 06:36:50 10° S
ERBS 4.1 06:33:31 18° NNW 06:34:29 20° N 06:37:02 10° NE
Cosmos 2180 Rocket 4.4 06:29:06 10° NNW 06:35:22 77° W 06:41:31 10° S
Lacrosse 4 Rocket 3.6 06:38:28 11° SW 06:38:28 11° SW 06:38:53 10° SW
IRS-1C Rocket 4.1 06:33:43 10° N 06:38:54 57° WNW 06:44:03 10° SW
ALOS 2.5 06:35:06 10° NNE 06:39:48 73° ESE 06:44:28 10° S
Cosmos 2251 Rocket 3.7 06:35:31 10° SW 06:40:36 50° WNW 06:45:43 10° NNE
Lacrosse 5 2.4 06:38:34 17° NW 06:42:21 51° NNE 06:47:18 10° ESE
Cosmos 1908 3.5 06:40:08 10° SSW 06:43:48 43° WNW 06:47:29 10° N
Okean 3 Rocket 3.7 06:39:48 10° NNW 06:44:06 50° W 06:48:23 10° S
Lacrosse 5 rocket 2.0 06:42:33 20° W 06:45:10 43° NNW 06:49:32 10° NE
Cosmos 1437 Rocket 2.7 06:41:58 10° NNW 06:45:59 77° W 06:49:53 10° S
Tiangong 2 3.1 06:44:40 13° SW 06:46:22 19° SSW 06:48:43 10° SSE
COSMO-SKYMED 1 4.0 06:45:27 10° SW 06:48:19 17° W 06:48:24 17° W
Cosmos 2084 3.2 06:45:35 17° NW 06:48:35 68° SW 06:52:30 10° SSE
Cosmos 371 Rocket 3.6 06:44:48 10° NNW 06:49:30 47° WSW 06:54:09 10° S
Cosmos 1408 Rocket 3.5 06:47:12 10° N 06:51:42 84° W 06:56:07 10° S
Cosmos 1238 Rocket 4.1 06:50:40 18° WNW 06:52:04 21° W 06:55:22 10° SW
Cosmos 2279 Rocket 4.2 06:46:48 10° NNW 06:52:43 47° W 06:58:34 10° SSW
Iridium 96 4.0 06:50:44 10° N 06:53:16 71° E 06:55:59 10° S
Cosmos 2058 3.0 06:50:55 10° NNW 06:54:54 52° W 06:58:53 10° S
Meteor 2-1 Rocket 4.1 06:52:18 10° SSW 06:57:48 86° W 07:03:22 10° N
Fregat R/B Cluster 11 4.2 06:55:08 10° WSW 06:57:56 59° NW 07:05:07 10° NE
Cosmos 1300 2.6 06:55:43 10° S 06:59:32 89° W 07:03:22 10° N
Cosmos 1943 Rocket 3.8 07:00:51 13° WNW 07:03:03 15° NW 07:06:16 10° N
Cosmos 2263 Rocket 4.2 07:02:41 10° N 07:06:53 21° NE 07:11:04 10° E
Meteor 2-10 4.3 07:02:23 10° SW 07:07:30 45° WNW 07:12:30 10° N
Cosmos 1766 Rocket 4.0 07:03:34 10° NNW 07:07:49 43° W 07:12:02 10° SSW
Cosmos 1092 Rocket 4.4 07:02:34 10° S 07:08:42 70° E 07:14:55 10° NNE
In-Cosmos 22 Rocket 4.1 07:04:28 10° NNW 07:09:48 88° W 07:15:09 10° S
Cosmos 2221 4.2 07:07:10 10° SSE 07:11:16 39° E 07:15:22 10° NNE
Cosmos 1892 3.4 07:07:41 10° N 07:11:29 57° ENE 07:15:15 10° SSE
YAOGAN 1 4.2 07:08:22 10° NNE 07:12:28 39° E 07:16:31 10° SSE
SMAP 3.0 07:08:00 10° N 07:12:40 71° WNW 07:17:17 10° SSW
Cosmos 2297 Rocket 2.3 07:08:05 10° NNW 07:13:41 63° WSW 07:19:14 10° SSE
FENGYUN 3A 3.7 07:10:32 10° N 07:15:54 67° WNW 07:21:16 10° SSW
USA 234 4.2 07:11:30 10° ENE 07:17:53 53° SE 07:24:15 10° SSW
Gbstr 26 Del rocket 4.4 07:11:01 10° WSW 07:17:55 89° SSE 07:25:57 10° ENE
Cosmos 405 Rocket 3.9 07:15:40 10° WSW 07:18:35 21° WNW 07:21:28 10° NNW
MTI 3.7 07:16:53 10° S 07:20:02 79° WSW 07:23:16 10° NNW
Cosmos 1656 4.1 07:14:57 10° SSW 07:20:37 72° ESE 07:26:19 10° NNE
CZ-4C R/B 4.1 07:17:04 10° NW 07:22:05 23° N 07:27:43 10° ENE
Meteor 1-4 Rocket 3.8 07:21:31 10° NW 07:24:35 24° W 07:27:37 10° SW
GEOS 3 Rocket 3.6 07:19:38 10° NE 07:24:49 78° NW 07:29:55 10° SW
Cosmos 1743 Rocket 3.6 07:20:36 10° NNW 07:25:06 75° W 07:29:33 10° S
Cosmos 2219 4.3 07:25:22 10° NW 07:29:56 25° WSW 07:34:27 10° SSW
Cosmos 2278 4.5 07:25:20 10° S 07:30:51 59° ESE 07:36:25 10° NE
